Tracking 19909 objects as of 21-Oct-2019
HD Live streaming from Space Station
objects crossing your sky now

DIAMANT B-P4 DEB

Track DIAMANT B-P4 DEB now!
10-day predictions


NORAD ID: 7659
Int'l Code: 1975-010E
Perigee: 789.5 km
Apogee: 1,066.2 km
Inclination: 49.8 °
Period: 103.4 minutes
Semi major axis: 7298 km
RCS: 0.1434 m2 (medium)
Launch date: February 6, 1975
Source: France (FR)
Launch site: FRENCH GUIANA (FRGUI)

Note: This is SATELLITE DEBRIS
aabbcc
Your satellite tracking list
Your tracking list is empty




NASA's NSSDC Master Catalog

Two Line Element Set (TLE):
1  7659U 75010E   19293.87554766 -.00000036 +00000-0 +75588-4 0  9999
2  7659 049.8142 136.2179 0189542 074.0598 288.1094 13.92274873266460
Source of the keplerian elements: AFSPC